Location: Campillo
(40.8621°N, 4.2488°W)
Time: 12:35:27
(UTC+00:00)

USA 308 - Pass Details

Date: 23 September 2021
Orbit: 566 x 573 km, 54.0° (Epoch: 23 September)

Event Time Altitude Azimuth Distance (km) Brightness Sun altitude
Rises 20:59:52 0° 314° (NW) 2,773 7.5 -31.2°
Reaches altitude 10° 21:02:31 10° 329° (NNW) 1,875 6.2 -31.6°
Enters shadow 21:04:00 17° 346° (NNW) 1,472 5.4 -31.8°
